QPF
0.00 0.00 0.00 0.00 0.00 0.00 0.00 0.00 0.00 0.00 0.00 0.00 0.00 0.00 0.00 0.00 0.00 0.00 0.00 0.00 0.00 0.00 0.00 0.00 0.00 0.00 0.00 0.00 0.00 0.00 0.00 0.00 0.00 0.00 0.00 0.00 0.00 0.00 0.00 0.00 0.00 0.00 0.00 0.00
0.00 0.00 0.00 0.00 0.00 0.00 0.00 0.00 0.00 0.00 0.00 0.00 0.00 0.00 0.00 0.00 0.00 0.00 0.00 0.00 0.00 0.00 0.00 0.00 0.00 0.00 0.00 0.00 0.00 0.00 0.00 0.00 0.00 0.00 0.00 0.00 0.00 0.00 0.00 0.00 0.00 0.00 0.00 0.00
0.00 0.00 0.00 0.00 0.00 0.00 0.00 0.00 0.00 0.00 0.00 0.00 0.00 0.00 0.00 0.00 0.00 0.00 0.00 0.00 0.00 0.00 0.00 0.00 0.00 0.00 0.00 0.00 0.00 0.00 0.00 0.00 0.00 0.00 0.00 0.00 0.00 0.00 0.00 0.00 0.00 0.00 0.00 0.00
0.00 0.00 0.00 0.00 0.00 0.00 0.00 0.00 0.00 0.00 0.00 0.00 0.00 0.00 0.00 0.00 0.00 0.00 0.00 0.00 0.00 0.00 0.00 0.00 0.00 0.00 0.00 0.00 0.00 0.00 0.00 0.00 0.00 0.00 0.00 0.00 0.00 0.00 0.00 0.00 0.00 0.00 0.00 0.00
0.00 0.00 0.00 0.00 0.00 0.00 0.00 0.00 0.00 0.00 0.00 0.00 0.00 0.00 0.00 0.00 0.00 0.00 0.00 0.00 0.00 0.00 0.00 0.00 0.00 0.00 0.00 0.00 0.00 0.00 0.00 0.00 0.00 0.00 0.00 0.00 0.00 0.00 0.00 0.00 0.00 0.00 0.00 0.00
0.00 0.00 0.00 0.00 0.00 0.00 0.00 0.00 0.00 0.00 0.00 0.00 0.00 0.00 0.00 0.00 0.00 0.00 0.00 0.00 0.00 0.00 0.00 0.00 0.00 0.00 0.00 0.00 0.00 0.00 0.00 0.00 0.00 0.00 0.00 0.00 0.00 0.00 0.00 0.00 0.00 0.00 0.00 0.00
0.00 0.00 0.00 0.00 0.00 0.00 0.00 0.00 0.00 0.00 0.00 0.00 0.00 0.00 0.00 0.00 0.00 0.00 0.00 0.00 0.00 0.00 0.00 0.00 0.00 0.00 0.00 0.00 0.00 0.00 0.00 0.00 0.00 0.00 0.00 0.00 0.00 0.00 0.00 0.00 0.00 0.00 0.00 0.00
0.00 0.00 0.00 0.00 0.00 0.00 0.00 0.00 0.00 0.00 0.00 0.00 0.00 0.00 0.00 0.00 0.00 0.00 0.00 0.00 0.00 0.00 0.00 0.00 0.00 0.00 0.00 0.00 0.00 0.00 0.00 0.00 0.00 0.00 0.00 0.00 0.00 0.00 0.00 0.00 0.00 0.01 0.01 0.00
0.00 0.00 0.00 0.00 0.00 0.00 0.00 0.00 0.00 0.00 0.00 0.00 0.00 0.00 0.00 0.00 0.00 0.00 0.00 0.00 0.00 0.00 0.00 0.00 0.00 0.00 0.00 0.00 0.00 0.00 0.00 0.00 0.00 0.00 0.00 0.00 0.00 0.00 0.00 0.00 0.00 0.01 0.01 0.01
0.00 0.00 0.00 0.00 0.00 0.00 0.00 0.00 0.00 0.00 0.00 0.00 0.00 0.00 0.00 0.00 0.00 0.00 0.00 0.00 0.00 0.00 0.00 0.00 0.00 0.00 0.00 0.00 0.00 0.00 0.00 0.00 0.00 0.00 0.00 0.00 0.00 0.00 0.00 0.00 0.01 0.01 0.01 0.01
0.00 0.00 0.00 0.00 0.00 0.00 0.00 0.00 0.00 0.00 0.00 0.00 0.00 0.00 0.00 0.00 0.00 0.00 0.00 0.00 0.00 0.00 0.00 0.00 0.00 0.00 0.00 0.00 0.00 0.00 0.00 0.00 0.00 0.00 0.00 0.00 0.00 0.00 0.00 0.01 0.01 0.01 0.01 0.01
0.00 0.00 0.00 0.00 0.00 0.00 0.00 0.00 0.00 0.00 0.00 0.00 0.00 0.00 0.00 0.00 0.00 0.00 0.00 0.00 0.00 0.00 0.00 0.00 0.00 0.00 0.00 0.00 0.00 0.00 0.00 0.00 0.00 0.00 0.00 0.00 0.00 0.00 0.00 0.01 0.01 0.01 0.01 0.01
0.00 0.00 0.00 0.00 0.00 0.00 0.00 0.00 0.00 0.00 0.00 0.00 0.00 0.00 0.00 0.00 0.00 0.00 0.00 0.00 0.00 0.00 0.00 0.00 0.00 0.00 0.00 0.00 0.00 0.00 0.00 0.00 0.00 0.00 0.00 0.00 0.00 0.00 0.00 0.00 0.00 0.00 0.01 0.01
0.00 0.00 0.00 0.00 0.00 0.00 0.00 0.00 0.00 0.00 0.00 0.00 0.00 0.00 0.00 0.00 0.00 0.00 0.00 0.00 0.00 0.00 0.00 0.00 0.00 0.00 0.00 0.00 0.00 0.00 0.00 0.00 0.00 0.00 0.00 0.00 0.00 0.00 0.00 0.00 0.00 0.00 0.01 0.02
0.00 0.00 0.00 0.00 0.00 0.00 0.00 0.00 0.00 0.00 0.00 0.00 0.00 0.00 0.00 0.00 0.00 0.00 0.00 0.00 0.00 0.00 0.00 0.00 0.00 0.00 0.00 0.00 0.00 0.00 0.00 0.00 0.00 0.00 0.00 0.00 0.00 0.00 0.00 0.00 0.00 0.00 0.00 0.02
0.00 0.00 0.00 0.00 0.00 0.00 0.00 0.00 0.00 0.00 0.00 0.00 0.00 0.00 0.00 0.00 0.00 0.00 0.00 0.00 0.00 0.00 0.00 0.00 0.00 0.00 0.00 0.00 0.00 0.00 0.00 0.00 0.00 0.00 0.00 0.00 0.00 0.00 0.00 0.00 0.00 0.00 0.00 0.01
0.00 0.00 0.00 0.00 0.00 0.00 0.00 0.00 0.00 0.00 0.00 0.00 0.00 0.00 0.00 0.00 0.00 0.00 0.00 0.00 0.01 0.00 0.00 0.00 0.00 0.00 0.00 0.00 0.00 0.00 0.00 0.00 0.00 0.00 0.00 0.00 0.00 0.00 0.00 0.00 0.00 0.00 0.00 0.01
0.00 0.00 0.00 0.00 0.00 0.00 0.00 0.00 0.00 0.00 0.00 0.00 0.00 0.00 0.00 0.00 0.00 0.00 0.00 0.01 0.00 0.00 0.00 0.00 0.00 0.00 0.00 0.00 0.00 0.00 0.00 0.00 0.00 0.00 0.00 0.00 0.00 0.00 0.00 0.00 0.00 0.00 0.00 0.01
0.00 0.00 0.00 0.00 0.00 0.00 0.00 0.00 0.00 0.00 0.00 0.00 0.00 0.00 0.00 0.00 0.00 0.00 0.01 0.01 0.00 0.00 0.00 0.00 0.00 0.00 0.00 0.00 0.00 0.00 0.00 0.00 0.00 0.00 0.00 0.00 0.00 0.00 0.00 0.00 0.00 0.00 0.00 0.00
0.00 0.00 0.00 0.00 0.00 0.00 0.00 0.00 0.00 0.00 0.00 0.00 0.00 0.00 0.00 0.00 0.01 0.02 0.02 0.01 0.00 0.00 0.00 0.00 0.00 0.00 0.00 0.00 0.00 0.00 0.00 0.00 0.00 0.00 0.00 0.00 0.00 0.00 0.00 0.00 0.00 0.00 0.00 0.00
0.00 0.00 0.00 0.00 0.00 0.00 0.00 0.00 0.00 0.00 0.00 0.00 0.00 0.00 0.00 0.00 0.02 0.02 0.01 0.00 0.00 0.00 0.00 0.00 0.00 0.00 0.00 0.00 0.00 0.00 0.00 0.00 0.00 0.00 0.00 0.00 0.00 0.00 0.00 0.00 0.00 0.00 0.00 0.00
0.00 0.00 0.00 0.00 0.00 0.00 0.00 0.00 0.00 0.00 0.00 0.00 0.00 0.00 0.00 0.00 0.01 0.00 0.00 0.00 0.00 0.00 0.00 0.00 0.00 0.00 0.00 0.00 0.00 0.00 0.00 0.00 0.00 0.00 0.00 0.00 0.00 0.00 0.00 0.00 0.00 0.00 0.00 0.00
0.00 0.00 0.00 0.00 0.00 0.00 0.00 0.00 0.00 0.00 0.00 0.00 0.00 0.00 0.00 0.00 0.00 0.00 0.00 0.00 0.00 0.00 0.00 0.00 0.00 0.00 0.00 0.00 0.00 0.00 0.00 0.00 0.00 0.00 0.00 0.00 0.00 0.00 0.00 0.00 0.00 0.00 0.00 0.00
0.00 0.00 0.00 0.00 0.00 0.00 0.00 0.00 0.00 0.00 0.00 0.00 0.00 0.00 0.00 0.00 0.00 0.00 0.00 0.00 0.00 0.00 0.00 0.00 0.00 0.00 0.00 0.00 0.00 0.00 0.00 0.00 0.00 0.00 0.00 0.00 0.00 0.00 0.00 0.00 0.00 0.00 0.00 0.00
0.00 0.00 0.00 0.00 0.00 0.00 0.00 0.00 0.00 0.00 0.00 0.00 0.00 0.00 0.00 0.00 0.00 0.00 0.00 0.00 0.00 0.00 0.00 0.00 0.00 0.00 0.00 0.00 0.00 0.00 0.00 0.00 0.00 0.00 0.00 0.00 0.00 0.00 0.00 0.00 0.00 0.00 0.00 0.00
0.00 0.00 0.00 0.00 0.00 0.00 0.00 0.00 0.00 0.00 0.00 0.00 0.00 0.00 0.00 0.00 0.00 0.00 0.00 0.00 0.00 0.00 0.00 0.00 0.00 0.00 0.00 0.00 0.00 0.00 0.00 0.00 0.00 0.00 0.00 0.00 0.00 0.00 0.00 0.00 0.00 0.00 0.00 0.00
MSLP
1021.27 1021.98 1022.54 1022.93 1023.20 1023.45 1023.77 1024.27 1025.04 1026.09 1027.41 1028.89 1030.41 1031.82 1032.98 1033.77 1034.16 1034.15 1033.82 1033.27 1032.62 1031.98 1031.41 1030.96 1030.59 1030.26 1029.91 1029.48 1028.92 1028.22 1027.41 1026.53 1025.65 1024.82 1024.08 1023.44 1022.88 1022.39 1021.92 1021.42 1020.86 1020.24 1019.56 1018.83
1022.40 1023.00 1023.42 1023.67 1023.82 1023.95 1024.18 1024.63 1025.36 1026.40 1027.70 1029.18 1030.69 1032.09 1033.24 1034.04 1034.44 1034.46 1034.18 1033.69 1033.09 1032.50 1031.96 1031.50 1031.12 1030.76 1030.36 1029.89 1029.31 1028.61 1027.82 1026.98 1026.15 1025.36 1024.65 1024.01 1023.44 1022.90 1022.36 1021.79 1021.16 1020.49 1019.78 1019.05
1023.44 1023.88 1024.14 1024.24 1024.24 1024.26 1024.40 1024.78 1025.47 1026.46 1027.72 1029.16 1030.63 1031.99 1033.12 1033.92 1034.35 1034.44 1034.24 1033.84 1033.35 1032.84 1032.36 1031.94 1031.56 1031.19 1030.78 1030.29 1029.70 1029.01 1028.26 1027.47 1026.68 1025.94 1025.25 1024.62 1024.01 1023.42 1022.80 1022.14 1021.44 1020.71 1019.96 1019.21
1024.38 1024.65 1024.74 1024.68 1024.55 1024.47 1024.53 1024.85 1025.48 1026.42 1027.62 1028.98 1030.37 1031.67 1032.76 1033.55 1034.01 1034.17 1034.07 1033.80 1033.44 1033.05 1032.67 1032.32 1031.98 1031.62 1031.21 1030.72 1030.13 1029.47 1028.75 1028.00 1027.26 1026.55 1025.88 1025.23 1024.59 1023.93 1023.23 1022.49 1021.71 1020.90 1020.10 1019.31
1025.24 1025.33 1025.25 1025.05 1024.82 1024.66 1024.68 1024.96 1025.55 1026.44 1027.56 1028.83 1030.12 1031.33 1032.35 1033.10 1033.58 1033.80 1033.81 1033.68 1033.46 1033.21 1032.95 1032.70 1032.42 1032.10 1031.70 1031.22 1030.65 1030.00 1029.30 1028.58 1027.87 1027.17 1026.50 1025.83 1025.14 1024.41 1023.64 1022.81 1021.95 1021.07 1020.20 1019.36
1026.03 1025.95 1025.72 1025.42 1025.12 1024.94 1024.95 1025.23 1025.80 1026.64 1027.70 1028.86 1030.04 1031.13 1032.05 1032.75 1033.21 1033.47 1033.57 1033.56 1033.48 1033.37 1033.25 1033.10 1032.90 1032.63 1032.26 1031.79 1031.23 1030.59 1029.90 1029.19 1028.48 1027.79 1027.09 1026.39 1025.65 1024.86 1024.01 1023.11 1022.17 1021.21 1020.26 1019.35
1026.75 1026.53 1026.20 1025.84 1025.53 1025.37 1025.41 1025.73 1026.32 1027.13 1028.12 1029.18 1030.24 1031.19 1031.99 1032.59 1033.01 1033.28 1033.43 1033.52 1033.56 1033.58 1033.57 1033.52 1033.40 1033.18 1032.85 1032.40 1031.84 1031.21 1030.52 1029.80 1029.08 1028.36 1027.64 1026.90 1026.11 1025.26 1024.35 1023.38 1022.36 1021.33 1020.30 1019.30
1027.38 1027.08 1026.70 1026.33 1026.06 1025.96 1026.09 1026.47 1027.09 1027.91 1028.84 1029.80 1030.72 1031.53 1032.18 1032.67 1033.02 1033.26 1033.43 1033.56 1033.69 1033.81 1033.90 1033.94 1033.89 1033.72 1033.43 1033.00 1032.45 1031.81 1031.11 1030.38 1029.64 1028.90 1028.14 1027.35 1026.52 1025.62 1024.65 1023.62 1022.54 1021.44 1020.33 1019.23
1027.92 1027.58 1027.21 1026.88 1026.69 1026.69 1026.93 1027.40 1028.08 1028.90 1029.78 1030.65 1031.44 1032.09 1032.59 1032.95 1033.20 1033.38 1033.53 1033.69 1033.86 1034.04 1034.20 1034.31 1034.32 1034.20 1033.93 1033.52 1032.98 1032.35 1031.64 1030.90 1030.14 1029.37 1028.59 1027.76 1026.89 1025.96 1024.94 1023.86 1022.73 1021.56 1020.38 1019.19
1028.36 1028.04 1027.72 1027.48 1027.40 1027.52 1027.87 1028.43 1029.16 1029.98 1030.82 1031.60 1032.25 1032.76 1033.11 1033.33 1033.47 1033.57 1033.69 1033.84 1034.03 1034.24 1034.45 1034.60 1034.65 1034.56 1034.33 1033.94 1033.42 1032.80 1032.10 1031.36 1030.59 1029.80 1029.00 1028.15 1027.25 1026.28 1025.24 1024.12 1022.95 1021.72 1020.47 1019.21
1028.74 1028.48 1028.24 1028.11 1028.14 1028.37 1028.82 1029.46 1030.22 1031.02 1031.80 1032.48 1033.01 1033.38 1033.60 1033.71 1033.75 1033.78 1033.85 1033.98 1034.17 1034.40 1034.63 1034.80 1034.88 1034.83 1034.62 1034.26 1033.77 1033.16 1032.48 1031.75 1030.99 1030.20 1029.39 1028.53 1027.61 1026.63 1025.56 1024.42 1023.21 1021.94 1020.64 1019.33
1029.10 1028.93 1028.79 1028.76 1028.90 1029.22 1029.73 1030.39 1031.14 1031.90 1032.60 1033.18 1033.60 1033.86 1033.97 1033.99 1033.96 1033.95 1033.99 1034.11 1034.30 1034.54 1034.77 1034.97 1035.06 1035.03 1034.85 1034.51 1034.05 1033.47 1032.81 1032.10 1031.36 1030.58 1029.77 1028.91 1027.98 1026.99 1025.91 1024.75 1023.52 1022.24 1020.92 1019.57
1029.51 1029.45 1029.41 1029.47 1029.67 1030.03 1030.55 1031.18 1031.87 1032.54 1033.14 1033.62 1033.94 1034.12 1034.16 1034.14 1034.09 1034.07 1034.12 1034.25 1034.45 1034.70 1034.95 1035.14 1035.25 1035.23 1035.06 1034.75 1034.30 1033.75 1033.12 1032.43 1031.71 1030.94 1030.14 1029.28 1028.36 1027.37 1026.29 1025.13 1023.90 1022.61 1021.29 1019.95
1030.05 1030.09 1030.13 1030.24 1030.46 1030.81 1031.26 1031.81 1032.38 1032.94 1033.42 1033.79 1034.03 1034.16 1034.19 1034.17 1034.15 1034.17 1034.26 1034.43 1034.67 1034.94 1035.20 1035.40 1035.50 1035.48 1035.31 1035.00 1034.57 1034.04 1033.42 1032.75 1032.04 1031.29 1030.50 1029.65 1028.74 1027.75 1026.68 1025.53 1024.31 1023.04 1021.74 1020.43
1030.75 1030.86 1030.96 1031.08 1031.27 1031.53 1031.88 1032.28 1032.71 1033.11 1033.46 1033.74 1033.92 1034.03 1034.08 1034.12 1034.18 1034.29 1034.46 1034.70 1034.99 1035.29 1035.56 1035.76 1035.85 1035.81 1035.63 1035.31 1034.87 1034.34 1033.72 1033.05 1032.35 1031.60 1030.81 1029.98 1029.08 1028.11 1027.05 1025.93 1024.75 1023.51 1022.25 1020.99
1031.59 1031.75 1031.86 1031.96 1032.06 1032.20 1032.39 1032.62 1032.87 1033.11 1033.34 1033.53 1033.69 1033.82 1033.94 1034.07 1034.24 1034.47 1034.75 1035.08 1035.43 1035.76 1036.04 1036.23 1036.30 1036.23 1036.01 1035.66 1035.20 1034.64 1034.00 1033.33 1032.61 1031.86 1031.08 1030.25 1029.36 1028.41 1027.40 1026.31 1025.17 1023.99 1022.78 1021.58
1032.51 1032.69 1032.78 1032.80 1032.80 1032.79 1032.80 1032.84 1032.91 1033.00 1033.12 1033.26 1033.42 1033.60 1033.82 1034.08 1034.38 1034.74 1035.14 1035.55 1035.96 1036.32 1036.60 1036.76 1036.79 1036.67 1036.41 1036.01 1035.51 1034.91 1034.25 1033.54 1032.81 1032.05 1031.26 1030.44 1029.57 1028.65 1027.68 1026.65 1025.56 1024.44 1023.30 1022.16
1033.40 1033.57 1033.61 1033.54 1033.40 1033.24 1033.07 1032.94 1032.86 1032.84 1032.89 1033.01 1033.20 1033.46 1033.79 1034.18 1034.63 1035.11 1035.60 1036.09 1036.53 1036.90 1037.16 1037.29 1037.26 1037.09 1036.77 1036.32 1035.76 1035.12 1034.42 1033.68 1032.92 1032.15 1031.36 1030.55 1029.70 1028.82 1027.90 1026.93 1025.91 1024.85 1023.78 1022.69
1034.13 1034.27 1034.24 1034.07 1033.81 1033.51 1033.20 1032.94 1032.76 1032.67 1032.70 1032.85 1033.10 1033.46 1033.91 1034.42 1034.98 1035.56 1036.12 1036.64 1037.09 1037.44 1037.65 1037.72 1037.64 1037.41 1037.03 1036.53 1035.92 1035.24 1034.51 1033.74 1032.96 1032.17 1031.38 1030.57 1029.76 1028.92 1028.05 1027.15 1026.20 1025.21 1024.20 1023.16
1034.62 1034.70 1034.59 1034.34 1033.98 1033.57 1033.18 1032.85 1032.62 1032.54 1032.60 1032.81 1033.16 1033.63 1034.19 1034.80 1035.44 1036.07 1036.65 1037.17 1037.58 1037.87 1038.02 1038.03 1037.88 1037.58 1037.15 1036.61 1035.97 1035.26 1034.50 1033.72 1032.92 1032.12 1031.32 1030.54 1029.75 1028.96 1028.14 1027.30 1026.43 1025.51 1024.56 1023.57
1034.79 1034.81 1034.64 1034.31 1033.89 1033.44 1033.02 1032.69 1032.50 1032.48 1032.63 1032.94 1033.40 1033.98 1034.63 1035.31 1035.99 1036.63 1037.18 1037.64 1037.98 1038.19 1038.25 1038.17 1037.96 1037.61 1037.14 1036.57 1035.92 1035.19 1034.42 1033.63 1032.82 1032.01 1031.22 1030.44 1029.68 1028.92 1028.16 1027.38 1026.58 1025.73 1024.84 1023.90
1034.64 1034.60 1034.38 1034.02 1033.59 1033.15 1032.77 1032.52 1032.43 1032.52 1032.80 1033.25 1033.83 1034.51 1035.23 1035.95 1036.63 1037.22 1037.70 1038.07 1038.30 1038.40 1038.36 1038.19 1037.91 1037.52 1037.02 1036.44 1035.78 1035.06 1034.28 1033.48 1032.67 1031.86 1031.06 1030.28 1029.54 1028.81 1028.09 1027.37 1026.64 1025.86 1025.04 1024.16
1034.24 1034.14 1033.89 1033.54 1033.14 1032.78 1032.50 1032.38 1032.44 1032.69 1033.13 1033.73 1034.44 1035.20 1035.97 1036.69 1037.33 1037.84 1038.22 1038.46 1038.56 1038.53 1038.39 1038.13 1037.79 1037.35 1036.84 1036.25 1035.60 1034.88 1034.11 1033.30 1032.48 1031.65 1030.84 1030.06 1029.31 1028.60 1027.92 1027.25 1026.57 1025.87 1025.13 1024.32
1033.66 1033.52 1033.27 1032.96 1032.64 1032.40 1032.28 1032.33 1032.57 1033.01 1033.63 1034.37 1035.18 1036.02 1036.81 1037.51 1038.08 1038.49 1038.75 1038.85 1038.81 1038.65 1038.39 1038.05 1037.64 1037.17 1036.64 1036.05 1035.39 1034.68 1033.90 1033.09 1032.24 1031.39 1030.55 1029.75 1028.98 1028.27 1027.60 1026.97 1026.36 1025.73 1025.07 1024.37
1032.99 1032.83 1032.61 1032.37 1032.18 1032.09 1032.15 1032.40 1032.85 1033.48 1034.25 1035.12 1036.03 1036.91 1037.70 1038.35 1038.84 1039.14 1039.27 1039.23 1039.06 1038.78 1038.42 1038.00 1037.53 1037.01 1036.46 1035.85 1035.18 1034.45 1033.67 1032.82 1031.95 1031.06 1030.18 1029.33 1028.54 1027.81 1027.15 1026.54 1025.97 1025.42 1024.86 1024.26
1032.32 1032.17 1032.00 1031.87 1031.82 1031.91 1032.17 1032.62 1033.25 1034.05 1034.96 1035.93 1036.89 1037.79 1038.56 1039.16 1039.56 1039.76 1039.77 1039.62 1039.33 1038.95 1038.49 1037.99 1037.46 1036.89 1036.30 1035.66 1034.96 1034.21 1033.38 1032.50 1031.58 1030.64 1029.71 1028.82 1027.99 1027.23 1026.56 1025.97 1025.44 1024.95 1024.48 1024.00
Thickness
5669 5658 5643 5645 5648 5651 5649 5640 5629 5616 5605 5587 5567 5549 5540 5536 5529 5522 5515 5510 5505 5500 5495 5490 5483 5478 5473 5469 5464 5460 5456 5453 5453 5452 5453 5455 5459 5462 5466 5468 5470 5474 5480 5485
5654 5644 5644 5650 5648 5646 5646 5635 5624 5605 5599 5578 5553 5541 5535 5530 5522 5512 5502 5494 5489 5488 5482 5475 5467 5458 5451 5444 5437 5432 5424 5421 5419 5416 5416 5419 5424 5429 5435 5440 5444 5448 5452 5458
5645 5644 5648 5647 5636 5634 5637 5634 5627 5610 5582 5571 5553 5533 5528 5522 5515 5505 5493 5483 5475 5472 5461 5453 5444 5433 5423 5414 5406 5399 5391 5387 5384 5381 5382 5386 5392 5397 5401 5407 5414 5419 5424 5431
5645 5644 5644 5638 5632 5630 5628 5633 5627 5614 5586 5562 5558 5525 5516 5513 5504 5495 5481 5469 5459 5448 5439 5428 5418 5406 5393 5384 5377 5372 5366 5361 5355 5350 5347 5346 5350 5356 5362 5370 5379 5388 5396 5405
5640 5640 5636 5632 5631 5631 5628 5624 5618 5610 5592 5572 5560 5530 5509 5503 5491 5481 5469 5456 5442 5430 5418 5405 5391 5377 5366 5359 5353 5349 5346 5341 5335 5327 5322 5321 5321 5322 5328 5336 5349 5362 5373 5382
5636 5640 5635 5632 5632 5629 5622 5618 5613 5597 5586 5581 5562 5542 5504 5486 5480 5467 5454 5440 5425 5412 5398 5383 5370 5357 5349 5343 5337 5333 5331 5328 5322 5314 5309 5306 5305 5307 5311 5318 5328 5340 5352 5363
5628 5631 5629 5630 5625 5622 5611 5604 5595 5590 5579 5573 5535 5520 5491 5483 5472 5458 5442 5426 5410 5394 5379 5366 5355 5345 5339 5333 5326 5320 5317 5315 5310 5303 5299 5296 5295 5296 5299 5305 5313 5324 5336 5347
5620 5618 5620 5621 5618 5612 5600 5591 5575 5568 5561 5553 5531 5508 5480 5476 5464 5448 5430 5414 5396 5378 5363 5352 5341 5332 5327 5321 5314 5308 5304 5301 5298 5293 5290 5290 5289 5289 5291 5295 5302 5313 5322 5334
5609 5615 5616 5615 5611 5608 5596 5574 5571 5551 5539 5526 5520 5490 5478 5467 5450 5433 5416 5398 5379 5364 5351 5340 5330 5322 5316 5310 5302 5296 5292 5289 5287 5284 5283 5284 5283 5283 5285 5288 5294 5303 5311 5322
5605 5605 5608 5603 5603 5592 5581 5565 5545 5538 5531 5523 5515 5487 5465 5449 5431 5418 5402 5386 5368 5353 5342 5332 5322 5313 5305 5299 5292 5286 5282 5278 5276 5275 5273 5275 5275 5277 5279 5283 5289 5297 5305 5313
5599 5594 5594 5591 5583 5576 5575 5560 5537 5512 5505 5494 5479 5485 5454 5439 5422 5402 5390 5374 5355 5343 5334 5323 5313 5303 5294 5289 5282 5276 5272 5269 5267 5266 5265 5266 5268 5270 5273 5277 5282 5289 5298 5305
5584 5575 5578 5582 5576 5569 5563 5550 5530 5515 5499 5475 5456 5461 5448 5429 5407 5390 5377 5361 5343 5333 5324 5315 5304 5293 5285 5279 5272 5266 5261 5257 5254 5253 5253 5254 5256 5259 5262 5267 5272 5278 5286 5293
5583 5574 5580 5582 5573 5562 5550 5543 5528 5500 5479 5458 5440 5451 5435 5411 5396 5382 5365 5347 5333 5326 5317 5307 5295 5284 5275 5268 5261 5254 5249 5244 5241 5240 5239 5240 5241 5244 5248 5253 5258 5265 5271 5279
5574 5566 5571 5577 5570 5552 5543 5534 5519 5490 5470 5457 5444 5437 5425 5405 5390 5378 5359 5338 5329 5320 5310 5300 5288 5275 5265 5257 5249 5242 5236 5230 5226 5224 5223 5223 5224 5226 5230 5235 5241 5247 5254 5262
5567 5563 5560 5553 5544 5539 5534 5524 5508 5487 5469 5450 5438 5423 5412 5395 5378 5364 5348 5334 5328 5313 5304 5293 5279 5266 5254 5245 5238 5230 5222 5216 5211 5207 5205 5203 5204 5207 5211 5216 5222 5227 5234 5243
5555 5555 5551 5547 5534 5525 5522 5510 5497 5482 5467 5447 5429 5415 5406 5387 5367 5355 5340 5330 5318 5305 5295 5282 5268 5254 5241 5231 5224 5217 5211 5205 5198 5193 5189 5187 5186 5187 5190 5195 5200 5206 5213 5221
5542 5543 5540 5530 5516 5524 5512 5500 5488 5476 5459 5440 5421 5411 5395 5377 5364 5347 5331 5317 5303 5292 5282 5268 5254 5240 5228 5219 5213 5207 5201 5196 5189 5183 5178 5174 5171 5170 5171 5174 5177 5183 5190 5199
5536 5528 5516 5507 5509 5520 5515 5497 5485 5469 5451 5432 5416 5401 5385 5368 5352 5336 5317 5304 5293 5282 5268 5254 5241 5231 5222 5215 5208 5201 5195 5189 5182 5176 5169 5164 5160 5157 5156 5156 5157 5162 5169 5177
5530 5522 5504 5490 5493 5497 5499 5490 5475 5457 5442 5429 5413 5398 5380 5362 5345 5329 5310 5297 5284 5270 5257 5244 5233 5224 5217 5210 5204 5198 5191 5185 5177 5171 5164 5157 5152 5147 5146 5143 5143 5146 5151 5158
5518 5508 5488 5477 5497 5505 5509 5484 5467 5447 5427 5421 5406 5389 5371 5351 5343 5327 5303 5290 5275 5261 5248 5237 5228 5220 5214 5207 5201 5194 5187 5179 5172 5166 5159 5152 5145 5140 5137 5133 5132 5134 5137 5142
5520 5505 5488 5472 5471 5488 5488 5474 5456 5434 5426 5418 5400 5382 5361 5339 5326 5311 5295 5281 5268 5253 5242 5234 5225 5217 5211 5205 5198 5190 5182 5174 5167 5160 5152 5146 5140 5134 5131 5125 5123 5124 5126 5129
5518 5499 5488 5470 5462 5476 5484 5464 5448 5436 5425 5409 5390 5371 5351 5334 5319 5303 5289 5274 5261 5248 5239 5230 5223 5216 5210 5203 5195 5187 5179 5172 5163 5155 5147 5141 5135 5130 5127 5120 5117 5115 5115 5117
5513 5513 5503 5497 5500 5493 5479 5466 5452 5435 5419 5400 5377 5358 5341 5325 5310 5297 5282 5267 5254 5245 5238 5230 5221 5215 5209 5202 5193 5185 5178 5170 5161 5152 5144 5137 5132 5126 5121 5116 5113 5109 5107 5107
5510 5507 5499 5492 5490 5483 5474 5461 5446 5428 5409 5387 5368 5347 5330 5315 5301 5286 5273 5263 5251 5243 5236 5229 5222 5215 5209 5202 5193 5184 5177 5169 5159 5151 5144 5138 5132 5125 5118 5112 5108 5103 5101 5099
5516 5499 5494 5491 5488 5480 5469 5454 5435 5410 5393 5376 5357 5338 5323 5309 5295 5278 5264 5255 5246 5241 5234 5228 5220 5213 5208 5202 5194 5186 5177 5168 5159 5152 5146 5139 5132 5124 5116 5109 5101 5097 5095 5092
5509 5503 5497 5496 5489 5473 5459 5444 5424 5405 5388 5369 5350 5331 5315 5302 5287 5273 5262 5251 5243 5237 5232 5226 5219 5213 5209 5202 5195 5187 5178 5168 5159 5154 5148 5141 5134 5125 5116 5107 5101 5094 5089 5088